,,,PA_Meas_PMT16A,,PR_Meas_QMR101_102,,RH_Meas_QMH101,,SR_Meas_QMS101,,TA_Meas_QMH101,,GenWind,,GenWind,
date,time,status,PA,status,PR,status,RH,status,SR,status,TA,status,DirAvg,status,SpdAvg,
2012-09-17, 00:00:04,VALID,1011.74,VALID,0,VALID,104,VALID,0,VALID,23.2848,VALID,71,VALID,0.614062,
2012-09-17, 00:01:04,VALID,1011.74,VALID,0,VALID,104,VALID,0,VALID,23.2848,VALID,90,VALID,1.57813,
2012-09-17, 00:02:04,VALID,1011.74,VALID,0,VALID,104,VALID,0,VALID,23.2654,VALID,104,VALID,1.07617,
2012-09-17, 00:03:04,VALID,1011.73,VALID,0,VALID,104,VALID,0,VALID,23.2654,VALID,91,VALID,1.31289,
2012-09-17, 00:04:04,VALID,1011.72,VALID,0,VALID,104,VALID,0,VALID,23.2848,VALID,97,VALID,0.837891,
2012-09-17, 00:05:04,VALID,1011.69,VALID,0,VALID,104,VALID,0,VALID,23.2848,VALID,97,VALID,0.551953,
2012-09-17, 00:06:04,VALID,1011.68,VALID,0,VALID,104,VALID,0,VALID,23.3043,VALID,93,VALID,0.553516,
2012-09-17, 00:07:04,VALID,1011.66,VALID,0,VALID,104,VALID,0,VALID,23.2848,VALID,86,VALID,1.44219,
2012-09-17, 00:08:04,VALID,1011.61,VALID,0,VALID,104,VALID,0,VALID,23.2848,VALID,62,VALID,0.761719,
2012-09-17, 00:09:04,VALID,1011.62,VALID,0,VALID,104,VALID,0,VALID,23.3043,VALID,60,VALID,0.712891,
2012-09-17, 00:10:04,VALID,1011.64,VALID,0,VALID,104,VALID,0,VALID,23.2654,VALID,67,VALID,1.01875,
2012-09-17, 00:11:04,VALID,1011.64,VALID,0,VALID,104,VALID,0,VALID,23.2654,VALID,75,VALID,1.51641,
2012-09-17, 00:12:04,VALID,1011.6,VALID,0,VALID,104,VALID,0,VALID,23.2246,VALID,94,VALID,1.53281,
2012-09-17, 00:13:04,VALID,1011.62,VALID,0,VALID,104,VALID,0,VALID,23.2459,VALID,64,VALID,1.56016,
2012-09-17, 00:14:04,VALID,1011.56,VALID,0,VALID,104,VALID,0,VALID,23.2246,VALID,88,VALID,0.852734,
2012-09-17, 00:15:04,VALID,1011.57,VALID,0,VALID,104,VALID,0,VALID,23.2459,VALID,81,VALID,0.959375,
2012-09-17, 00:16:04,VALID,1011.56,VALID,0,VALID,104,VALID,0,VALID,23.2459,VALID,67,VALID,1.20508,
2012-09-17, 00:17:04,VALID,1011.56,VALID,0,VALID,104,VALID,0,VALID,23.2459,VALID,111,VALID,1.21758,
2012-09-17, 00:18:04,VALID,1011.57,VALID,0,VALID,104,VALID,0,VALID,23.2459,VALID,78,VALID,1.42188,
2012-09-17, 00:19:04,VALID,1011.58,VALID,0,VALID,104,VALID,0,VALID,23.2264,VALID,74,VALID,1.28828,
2012-09-17, 00:20:04,VALID,1011.63,VALID,0,VALID,104,VALID,0,VALID,23.2459,VALID,67,VALID,1.58984,
2012-09-17, 00:21:04,VALID,1011.6,VALID,0,VALID,104,VALID,0,VALID,23.2441,VALID,75,VALID,1.44922,
2012-09-17, 00:22:04,VALID,1011.59,VALID,0,VALID,104,VALID,0,VALID,23.2654,VALID,53,VALID,1.38555,
2012-09-17, 00:23:04,VALID,1011.58,VALID,0,VALID,104,VALID,0,VALID,23.2654,VALID,60,VALID,2.18555,
2012-09-17, 00:24:04,VALID,1011.55,VALID,0,VALID,104,VALID,0,VALID,23.2654,VALID,70,VALID,2.16641,
2012-09-17, 00:25:04,VALID,1011.52,VALID,0,VALID,104,VALID,0,VALID,23.2459,VALID,70,VALID,2.14648,
2012-09-17, 00:26:04,VALID,1011.53,VALID,0,VALID,104,VALID,0,VALID,23.2848,VALID,53,VALID,0.684766,
2012-09-17, 00:27:04,VALID,1011.49,VALID,0,VALID,104,VALID,0,VALID,23.2654,VALID,74,VALID,1.57695,
2012-09-17, 00:28:04,VALID,1011.51,VALID,0,VALID,104,VALID,0,VALID,23.2654,VALID,77,VALID,1.76484,
2012-09-17, 00:29:04,VALID,1011.51,VALID,0,VALID,104,VALID,0,VALID,23.2654,VALID,63,VALID,1.55859,
2012-09-17, 00:30:04,VALID,1011.54,VALID,0,VALID,104,VALID,0,VALID,23.2654,VALID,89,VALID,1.29375,
2012-09-17, 00:31:04,VALID,1011.55,VALID,0,VALID,104,VALID,0,VALID,23.2654,VALID,76,VALID,1.03203,
2012-09-17, 00:32:04,VALID,1011.55,VALID,0,VALID,104,VALID,0,VALID,23.2441,VALID,80,VALID,1.06797,
2012-09-17, 00:33:04,VALID,1011.53,VALID,0,VALID,104,VALID,0,VALID,23.2654,VALID,41,VALID,0.642187,
2012-09-17, 00:34:04,VALID,1011.52,VALID,0,VALID,104,VALID,0,VALID,23.2441,VALID,57,VALID,0.997656,
2012-09-17, 00:35:04,VALID,1011.54,VALID,0,VALID,104,VALID,0,VALID,23.2654,VALID,76,VALID,1.15273,
2012-09-17, 00:36:04,VALID,1011.48,VALID,0,VALID,104,VALID,0,VALID,23.2654,VALID,88,VALID,1.35703,
2012-09-17, 00:37:04,VALID,1011.5,VALID,0,VALID,104,VALID,0,VALID,23.2654,VALID,78,VALID,0.232812,
2012-09-17, 00:38:04,VALID,1011.45,VALID,0,VALID,104,VALID,0,VALID,23.2654,VALID,88,VALID,0.850391,
2012-09-17, 00:39:04,VALID,1011.39,VALID,0,VALID,104,VALID,0,VALID,23.2654,VALID,105,VALID,0.396875,
2012-09-17, 00:40:04,VALID,1011.36,VALID,0,VALID,104,VALID,0,VALID,23.2459,VALID,72,VALID,0.467578,
2012-09-17, 00:41:04,VALID,1011.27,VALID,0,VALID,104,VALID,0,VALID,23.2459,VALID,33,VALID,0.275781,
2012-09-17, 00:42:04,VALID,1011.25,VALID,0,VALID,104,VALID,0,VALID,23.2264,VALID,16,VALID,1.19492,
2012-09-17, 00:43:04,VALID,1011.2,VALID,0,VALID,104,VALID,0,VALID,23.2069,VALID,2,VALID,0.637109,
2012-09-17, 00:44:04,VALID,1011.17,VALID,0,VALID,104,VALID,0,VALID,23.2051,VALID,1,VALID,0.667578,
2012-09-17, 00:45:04,VALID,1011.11,VALID,0,VALID,104,VALID,0,VALID,23.2069,VALID,1,VALID,0.323828,
2012-09-17, 00:46:04,VALID,1011.1,VALID,0,VALID,104,VALID,0,VALID,23.1857,VALID,38,VALID,0.584375,
2012-09-17, 00:47:04,VALID,1011.09,VALID,0,VALID,104,VALID,0,VALID,23.2069,VALID,38,VALID,0.282813,
2012-09-17, 00:48:04,VALID,1011.09,VALID,0,VALID,104,VALID,0,VALID,23.1874,VALID,38,VALID,0.289453,
2012-09-17, 00:49:04,VALID,1011.08,VALID,0,VALID,104,VALID,0,VALID,23.1874,VALID,38,VALID,0,
2012-09-17, 00:50:04,VALID,1011.07,VALID,0,VALID,104,VALID,0,VALID,23.1467,VALID,37,VALID,0.0777344,
2012-09-17, 00:51:04,VALID,1011.07,VALID,0,VALID,104,VALID,0,VALID,23.1077,VALID,335,VALID,0.784375,
2012-09-17, 00:52:04,VALID,1011.06,VALID,0,VALID,104,VALID,0,VALID,23.129,VALID,334,VALID,0.318359,
2012-09-17, 00:53:04,VALID,1011.08,VALID,0,VALID,104,VALID,0,VALID,23.1485,VALID,336,VALID,0,
2012-09-17, 00:54:04,VALID,1011.11,VALID,0,VALID,104,VALID,0,VALID,23.1485,VALID,76,VALID,0.310937,
2012-09-17, 00:55:04,VALID,1011.11,VALID,0,VALID,104,VALID,0,VALID,23.1467,VALID,76,VALID,0.207813,
2012-09-17, 00:56:04,VALID,1011.11,VALID,0,VALID,104,VALID,0,VALID,23.1679,VALID,64,VALID,1.10469,
2012-09-17, 00:57:04,VALID,1011.08,VALID,0,VALID,104,VALID,0,VALID,23.1679,VALID,58,VALID,0.556641,
2012-09-17, 00:58:04,VALID,1011.06,VALID,0,VALID,104,VALID,0,VALID,23.1679,VALID,47,VALID,0.848047,
2012-09-17, 00:59:04,VALID,1011.05,VALID,0,VALID,104,VALID,0,VALID,23.1679,VALID,42,VALID,0.5125,
2012-09-17, 01:00:04,VALID,1011.08,VALID,0,VALID,104,VALID,0,VALID,23.1467,VALID,61,VALID,0.711328,
2012-09-17, 01:01:04,VALID,1011.13,VALID,0,VALID,104,VALID,0,VALID,23.1679,VALID,46,VALID,0.367188,
2012-09-17, 01:02:04,VALID,1011.14,VALID,0,VALID,104,VALID,0,VALID,23.1679,VALID,45,VALID,0.180859,
2012-09-17, 01:03:04,VALID,1011.19,VALID,0,VALID,104,VALID,0,VALID,23.1679,VALID,125,VALID,0.8375,
2012-09-17, 01:04:04,VALID,1011.23,VALID,0,VALID,104,VALID,0,VALID,23.1874,VALID,130,VALID,0.578125,
2012-09-17, 01:05:04,VALID,1011.27,VALID,0,VALID,104,VALID,0,VALID,23.2069,VALID,91,VALID,0.785547,
2012-09-17, 01:06:04,VALID,1011.25,VALID,0,VALID,103.947,VALID,0,VALID,23.1874,VALID,100,VALID,0.384766,
2012-09-17, 01:07:04,VALID,1011.22,VALID,0,VALID,103.848,VALID,0,VALID,23.2264,VALID,10,VALID,0.740625,
2012-09-17, 01:08:04,VALID,1011.22,VALID,0,VALID,103.382,VALID,0,VALID,23.2069,VALID,328,VALID,0.1625,
2012-09-17, 01:09:04,VALID,1011.18,VALID,0,VALID,103.443,VALID,0,VALID,23.2264,VALID,326,VALID,0.754687,
2012-09-17, 01:10:04,VALID,1011.13,VALID,0,VALID,103.459,VALID,0,VALID,23.2264,VALID,323,VALID,0.517578,
2012-09-17, 01:11:04,VALID,1011.1,VALID,0,VALID,103.367,VALID,0,VALID,23.2459,VALID,324,VALID,0.894922,
2012-09-17, 01:12:04,VALID,1011.07,VALID,0,VALID,103.436,VALID,0,VALID,23.2459,VALID,325,VALID,1.1832,
2012-09-17, 01:13:04,VALID,1011.04,VALID,0,VALID,103.405,VALID,0,VALID,23.2264,VALID,326,VALID,1.06797,
2012-09-17, 01:14:04,VALID,1011.02,VALID,0,VALID,103.634,VALID,0,VALID,23.2051,VALID,348,VALID,0.743359,
2012-09-17, 01:15:04,VALID,1010.96,VALID,0,VALID,103.886,VALID,0,VALID,23.2069,VALID,4,VALID,0.746484,
2012-09-17, 01:16:04,VALID,1010.9,VALID,0,VALID,103.909,VALID,0,VALID,23.1679,VALID,4,VALID,0.888672,
2012-09-17, 01:17:04,VALID,1010.83,VALID,0,VALID,104,VALID,0.112112,VALID,23.1485,VALID,355,VALID,0.423438,
2012-09-17, 01:18:04,VALID,1010.77,VALID,0,VALID,104,VALID,0,VALID,23.1077,VALID,360,VALID,0.503125,
2012-09-17, 01:19:04,VALID,1010.7,VALID,0,VALID,104,VALID,0,VALID,23.0688,VALID,334,VALID,0.401953,
2012-09-17, 01:20:04,VALID,1010.66,VALID,0,VALID,104,VALID,0,VALID,23.09,VALID,308,VALID,0.986719,
2012-09-17, 01:21:04,VALID,1010.63,VALID,0,VALID,104,VALID,0,VALID,23.0688,VALID,338,VALID,0.769531,
2012-09-17, 01:22:04,VALID,1010.58,VALID,0,VALID,104,VALID,0,VALID,23.09,VALID,342,VALID,0.503516,
2012-09-17, 01:23:04,VALID,1010.57,VALID,0,VALID,104,VALID,0,VALID,23.0705,VALID,352,VALID,0.136719,
2012-09-17, 01:24:04,VALID,1010.59,VALID,0,VALID,104,VALID,0,VALID,23.09,VALID,12,VALID,0.776563,
2012-09-17, 01:25:04,VALID,1010.61,VALID,0,VALID,103.664,VALID,0,VALID,23.09,VALID,358,VALID,0.410937,
2012-09-17, 01:26:04,VALID,1010.65,VALID,0,VALID,103.451,VALID,0,VALID,23.1095,VALID,69,VALID,0.591797,
2012-09-17, 01:27:04,VALID,1010.71,VALID,0,VALID,103.398,VALID,0,VALID,23.129,VALID,141,VALID,1.56836,
2012-09-17, 01:28:04,VALID,1010.74,VALID,0,VALID,103.161,VALID,0,VALID,23.2069,VALID,140,VALID,2.00664,
2012-09-17, 01:29:04,VALID,1010.76,VALID,0,VALID,103.093,VALID,0.112112,VALID,23.2654,VALID,140,VALID,1.93633,
2012-09-17, 01:30:04,VALID,1010.77,VALID,0,VALID,102.948,VALID,0,VALID,23.2459,VALID,154,VALID,1.7625,
2012-09-17, 01:31:04,VALID,1010.75,VALID,0,VALID,102.993,VALID,0,VALID,23.1857,VALID,126,VALID,1.63828,
2012-09-17, 01:32:04,VALID,1010.71,VALID,0,VALID,102.566,VALID,0,VALID,23.2264,VALID,114,VALID,1,
2012-09-17, 01:33:04,VALID,1010.69,VALID,0,VALID,102.376,VALID,0,VALID,23.2459,VALID,69,VALID,1.20586,
2012-09-17, 01:34:04,VALID,1010.69,VALID,0,VALID,101.712,VALID,0,VALID,23.2654,VALID,78,VALID,1.53789,
2012-09-17, 01:35:04,VALID,1010.7,VALID,0,VALID,101.133,VALID,0,VALID,23.2848,VALID,73,VALID,1.02422,
2012-09-17, 01:36:04,VALID,1010.7,VALID,0,VALID,100.546,VALID,0,VALID,23.3043,VALID,64,VALID,1.14023,
2012-09-17, 01:37:04,VALID,1010.68,VALID,0,VALID,100.256,VALID,0,VALID,23.3043,VALID,81,VALID,1.41484,
2012-09-17, 01:38:04,VALID,1010.7,VALID,0,VALID,100.073,VALID,0,VALID,23.3238,VALID,93,VALID,1.13594,
2012-09-17, 01:39:04,VALID,1010.7,VALID,0,VALID,100.202,VALID,0,VALID,23.3043,VALID,106,VALID,1.14688,
2012-09-17, 01:40:04,VALID,1010.69,VALID,0,VALID,99.8364,VALID,0,VALID,23.3238,VALID,94,VALID,1.06914,
2012-09-17, 01:41:04,VALID,1010.65,VALID,0,VALID,99.2797,VALID,0,VALID,23.3043,VALID,94,VALID,1.66523,
2012-09-17, 01:42:04,VALID,1010.62,VALID,0,VALID,100.05,VALID,0,VALID,23.3043,VALID,103,VALID,0.601172,
2012-09-17, 01:43:04,VALID,1010.64,VALID,0,VALID,101.163,VALID,0,VALID,23.3061,VALID,109,VALID,0.695313,
2012-09-17, 01:44:04,VALID,1010.65,VALID,0,VALID,101.75,VALID,0,VALID,23.2459,VALID,124,VALID,1.41797,
2012-09-17, 01:45:04,VALID,1010.67,VALID,0,VALID,102.01,VALID,0,VALID,23.1857,VALID,120,VALID,1.68477,
2012-09-17, 01:46:04,VALID,1010.62,VALID,0,VALID,102.254,VALID,0,VALID,23.1467,VALID,120,VALID,2.03477,
2012-09-17, 01:47:04,VALID,1010.61,VALID,0,VALID,102.666,VALID,0,VALID,23.1095,VALID,119,VALID,0.895312,
2012-09-17, 01:48:04,VALID,1010.59,VALID,0,VALID,102.94,VALID,0,VALID,23.1095,VALID,86,VALID,0.884375,
2012-09-17, 01:49:04,VALID,1010.58,VALID,0,VALID,103.054,VALID,0,VALID,23.0511,VALID,100,VALID,1.15508,
2012-09-17, 01:50:04,VALID,1010.6,VALID,0,VALID,103.07,VALID,0,VALID,23.0511,VALID,97,VALID,1.30586,
2012-09-17, 01:51:04,VALID,1010.56,VALID,0,VALID,103.123,VALID,0,VALID,23.0316,VALID,112,VALID,1.27422,
2012-09-17, 01:52:04,VALID,1010.57,VALID,0,VALID,103.283,VALID,0,VALID,23.0316,VALID,95,VALID,0.814844,
2012-09-17, 01:53:04,VALID,1010.54,VALID,0,VALID,103.215,VALID,0,VALID,23.0121,VALID,69,VALID,0.889063,
2012-09-17, 01:54:04,VALID,1010.54,VALID,0,VALID,103.222,VALID,0,VALID,23.0121,VALID,123,VALID,0.894141,
2012-09-17, 01:55:04,VALID,1010.55,VALID,0,VALID,103.306,VALID,0,VALID,23.0316,VALID,128,VALID,1.08125,
2012-09-17, 01:56:04,VALID,1010.52,VALID,0,VALID,103.359,VALID,0,VALID,23.0121,VALID,122,VALID,1.05781,
2012-09-17, 01:57:04,VALID,1010.5,VALID,0,VALID,103.451,VALID,0,VALID,23.0121,VALID,109,VALID,0.503906,
2012-09-17, 01:58:04,VALID,1010.46,VALID,0,VALID,103.428,VALID,0,VALID,22.9926,VALID,94,VALID,0.713281,
2012-09-17, 01:59:04,VALID,1010.46,VALID,0,VALID,103.451,VALID,0,VALID,22.9926,VALID,99,VALID,0.624219,
2012-09-17, 02:00:04,VALID,1010.45,VALID,0,VALID,103.573,VALID,0,VALID,22.9926,VALID,100,VALID,0.583984,
2012-09-17, 02:01:05,VALID,1010.41,VALID,0,VALID,103.626,VALID,0,VALID,22.9926,VALID,99,VALID,0.789453,
2012-09-17, 02:02:05,VALID,1010.45,VALID,0,VALID,103.664,VALID,0,VALID,22.9731,VALID,87,VALID,1.04102,
2012-09-17, 02:03:05,VALID,1010.44,VALID,0,VALID,103.619,VALID,0,VALID,22.9926,VALID,79,VALID,1.39688,
2012-09-17, 02:04:05,VALID,1010.44,VALID,0,VALID,103.695,VALID,0,VALID,22.9926,VALID,68,VALID,1.55039,
2012-09-17, 02:05:05,VALID,1010.45,VALID,0,VALID,103.42,VALID,0,VALID,23.0121,VALID,73,VALID,1.26406,
2012-09-17, 02:06:05,VALID,1010.48,VALID,0,VALID,103.337,VALID,0,VALID,23.0121,VALID,63,VALID,0.601953,
2012-09-17, 02:07:05,VALID,1010.47,VALID,0,VALID,103.405,VALID,0,VALID,23.0121,VALID,64,VALID,1.10703,
2012-09-17, 02:08:05,VALID,1010.49,VALID,0,VALID,103.466,VALID,0,VALID,23.0121,VALID,38,VALID,0.847266,
2012-09-17, 02:09:05,VALID,1010.49,VALID,0,VALID,103.558,VALID,0,VALID,22.9926,VALID,37,VALID,0.523438,
2012-09-17, 02:10:05,VALID,1010.49,VALID,0,VALID,103.634,VALID,0,VALID,22.9926,VALID,43,VALID,0.396875,
2012-09-17, 02:11:05,VALID,1010.46,VALID,0,VALID,103.642,VALID,0,VALID,22.9342,VALID,46,VALID,0.663672,
2012-09-17, 02:12:05,VALID,1010.46,VALID,0,VALID,103.863,VALID,0,VALID,22.9342,VALID,46,VALID,0.302734,
2012-09-17, 02:13:05,VALID,1010.45,VALID,0,VALID,103.977,VALID,0,VALID,22.9342,VALID,27,VALID,0.655859,
2012-09-17, 02:14:05,VALID,1010.43,VALID,0,VALID,104,VALID,0,VALID,22.8935,VALID,29,VALID,0.512109,
2012-09-17, 02:15:05,VALID,1010.4,VALID,0,VALID,104,VALID,0,VALID,22.8757,VALID,29,VALID,0.817187,
2012-09-17, 02:16:05,VALID,1010.38,VALID,0,VALID,104,VALID,0,VALID,22.8545,VALID,21,VALID,0.600391,
2012-09-17, 02:17:05,VALID,1010.38,VALID,0,VALID,104,VALID,0,VALID,22.8562,VALID,11,VALID,0.561328,
2012-09-17, 02:18:05,VALID,1010.37,VALID,0,VALID,104,VALID,0,VALID,22.8562,VALID,92,VALID,0.690234,
2012-09-17, 02:19:05,VALID,1010.35,VALID,0,VALID,104,VALID,0,VALID,22.8545,VALID,23,VALID,0.444141,
2012-09-17, 02:20:05,VALID,1010.4,VALID,0,VALID,103.84,VALID,0.112112,VALID,22.8757,VALID,50,VALID,0.183984,
2012-09-17, 02:21:05,VALID,1010.38,VALID,0,VALID,103.718,VALID,0,VALID,22.8757,VALID,66,VALID,0.642187,
2012-09-17, 02:22:05,VALID,1010.38,VALID,0,VALID,103.596,VALID,0.112112,VALID,22.9147,VALID,84,VALID,0.857813,
2012-09-17, 02:23:05,VALID,1010.37,VALID,0,VALID,103.329,VALID,0,VALID,22.9342,VALID,87,VALID,1.38164,
2012-09-17, 02:24:05,VALID,1010.38,VALID,0,VALID,102.833,VALID,0,VALID,22.9714,VALID,84,VALID,0.852734,
2012-09-17, 02:25:05,VALID,1010.33,VALID,0,VALID,102.605,VALID,0,VALID,23.0121,VALID,70,VALID,0.571094,
2012-09-17, 02:26:05,VALID,1010.32,VALID,0,VALID,102.482,VALID,0,VALID,23.0316,VALID,57,VALID,0.800391,
2012-09-17, 02:27:05,VALID,1010.35,VALID,0,VALID,102.33,VALID,0,VALID,23.0511,VALID,56,VALID,0.476563,
2012-09-17, 02:28:05,VALID,1010.34,VALID,0,VALID,102.505,VALID,0,VALID,23.0511,VALID,56,VALID,0.0644531,
2012-09-17, 02:29:05,VALID,1010.34,VALID,0,VALID,102.406,VALID,0,VALID,23.0511,VALID,57,VALID,0.405469,
2012-09-17, 02:30:05,VALID,1010.35,VALID,0,VALID,102.17,VALID,0,VALID,23.0103,VALID,98,VALID,0.538672,
2012-09-17, 02:31:05,VALID,1010.37,VALID,0,VALID,102.132,VALID,0,VALID,23.0316,VALID,98,VALID,0.583203,
2012-09-17, 02:32:05,VALID,1010.4,VALID,0,VALID,102.025,VALID,0,VALID,23.0511,VALID,100,VALID,0.572266,
2012-09-17, 02:33:05,VALID,1010.44,VALID,0,VALID,102.162,VALID,0.112112,VALID,23.0511,VALID,135,VALID,0.866016,
2012-09-17, 02:34:05,VALID,1010.45,VALID,0,VALID,102.094,VALID,0,VALID,23.0316,VALID,127,VALID,0.578906,
2012-09-17, 02:35:05,VALID,1010.43,VALID,0,VALID,101.827,VALID,0,VALID,23.0316,VALID,141,VALID,0.458594,
2012-09-17, 02:36:05,VALID,1010.45,VALID,0,VALID,101.499,VALID,0,VALID,23.0316,VALID,146,VALID,0.580078,
2012-09-17, 02:37:05,VALID,1010.43,VALID,0,VALID,101.545,VALID,0,VALID,23.0316,VALID,54,VALID,1.18164,
2012-09-17, 02:38:05,VALID,1010.41,VALID,0,VALID,101.514,VALID,0,VALID,23.0121,VALID,39,VALID,0.670313,
2012-09-17, 02:39:05,VALID,1010.41,VALID,0,VALID,101.423,VALID,0,VALID,23.0121,VALID,40,VALID,1.28242,
2012-09-17, 02:40:05,VALID,1010.4,VALID,0,VALID,101.384,VALID,0,VALID,23.0121,VALID,32,VALID,0.539844,
2012-09-17, 02:41:05,VALID,1010.35,VALID,0,VALID,101.522,VALID,0,VALID,22.9926,VALID,32,VALID,0.317578,
2012-09-17, 02:42:05,VALID,1010.33,VALID,0,VALID,101.712,VALID,0,VALID,23.0138,VALID,32,VALID,0.35,
2012-09-17, 02:43:05,VALID,1010.3,VALID,0,VALID,101.918,VALID,0.112112,VALID,22.9519,VALID,32,VALID,0.390234,
2012-09-17, 02:44:05,VALID,1010.3,VALID,0,VALID,102.025,VALID,0,VALID,22.9536,VALID,32,VALID,0.165625,
2012-09-17, 02:45:05,VALID,1010.3,VALID,0,VALID,102.193,VALID,0,VALID,22.9342,VALID,32,VALID,0.0371094,
2012-09-17, 02:46:05,VALID,1010.29,VALID,0,VALID,102.246,VALID,0,VALID,22.9342,VALID,32,VALID,0.0796875,
2012-09-17, 02:47:05,VALID,1010.3,VALID,0,VALID,102.322,VALID,0,VALID,22.9147,VALID,32,VALID,0.264453,
2012-09-17, 02:48:05,VALID,1010.3,VALID,0,VALID,102.574,VALID,0,VALID,22.8952,VALID,32,VALID,0.00742187,
2012-09-17, 02:49:05,VALID,1010.25,VALID,0,VALID,102.681,VALID,0.112112,VALID,22.8952,VALID,32,VALID,0.201562,
2012-09-17, 02:50:05,VALID,1010.26,VALID,0,VALID,102.826,VALID,0,VALID,22.8757,VALID,32,VALID,0.354688,
2012-09-17, 02:51:05,VALID,1010.25,VALID,0,VALID,102.978,VALID,0,VALID,22.8757,VALID,32,VALID,0.392188,
2012-09-17, 02:52:05,VALID,1010.25,VALID,0,VALID,103.024,VALID,0,VALID,22.8562,VALID,32,VALID,0.374609,
2012-09-17, 02:53:05,VALID,1010.23,VALID,0,VALID,103.199,VALID,0,VALID,22.8368,VALID,32,VALID,0.364844,
2012-09-17, 02:54:05,VALID,1010.24,VALID,0,VALID,103.42,VALID,0,VALID,22.8368,VALID,32,VALID,0.132031,
2012-09-17, 02:55:05,VALID,1010.25,VALID,0,VALID,103.512,VALID,0,VALID,22.8173,VALID,32,VALID,0.459375,
2012-09-17, 02:56:05,VALID,1010.26,VALID,0,VALID,103.68,VALID,0.112112,VALID,22.7978,VALID,32,VALID,0.164063,
2012-09-17, 02:57:05,VALID,1010.26,VALID,0,VALID,103.886,VALID,0,VALID,22.7783,VALID,32,VALID,0.432813,
2012-09-17, 02:58:05,VALID,1010.26,VALID,0,VALID,103.985,VALID,0.112112,VALID,22.7588,VALID,32,VALID,0.408984,
2012-09-17, 02:59:05,VALID,1010.27,VALID,0,VALID,104,VALID,0,VALID,22.7199,VALID,32,VALID,0.45625,
2012-09-17, 03:00:05,VALID,1010.3,VALID,0,VALID,104,VALID,0,VALID,22.7199,VALID,32,VALID,0.185156,
2012-09-17, 03:01:05,VALID,1010.31,VALID,0,VALID,104,VALID,0,VALID,22.7199,VALID,32,VALID,0,
2012-09-17, 03:02:05,VALID,1010.33,VALID,0,VALID,104,VALID,0,VALID,22.7199,VALID,32,VALID,0.502344,
2012-09-17, 03:03:05,VALID,1010.37,VALID,0,VALID,104,VALID,0,VALID,22.7004,VALID,37,VALID,0.642578,
2012-09-17, 03:04:05,VALID,1010.39,VALID,0,VALID,104,VALID,0.112112,VALID,22.6792,VALID,105,VALID,0.767187,
2012-09-17, 03:05:05,VALID,1010.41,VALID,0,VALID,104,VALID,0,VALID,22.7004,VALID,126,VALID,0.808203,
2012-09-17, 03:06:05,VALID,1010.44,VALID,0,VALID,104,VALID,0,VALID,22.7199,VALID,147,VALID,1.09219,
2012-09-17, 03:07:05,VALID,1010.46,VALID,0,VALID,104,VALID,0,VALID,22.7004,VALID,162,VALID,1.27148,
2012-09-17, 03:08:05,VALID,1010.5,VALID,0,VALID,104,VALID,0,VALID,22.7199,VALID,186,VALID,1.33594,
2012-09-17, 03:09:05,VALID,1010.52,VALID,0,VALID,104,VALID,0.112112,VALID,22.7004,VALID,168,VALID,1.25625,
2012-09-17, 03:10:05,VALID,1010.53,VALID,0,VALID,104,VALID,0,VALID,22.7004,VALID,183,VALID,1.44062,
2012-09-17, 03:11:05,VALID,1010.55,VALID,0,VALID,104,VALID,0,VALID,22.6809,VALID,184,VALID,1.68164,
2012-09-17, 03:12:05,VALID,1010.55,VALID,0,VALID,104,VALID,0,VALID,22.7004,VALID,153,VALID,1.35352,
2012-09-17, 03:13:05,VALID,1010.56,VALID,0,VALID,104,VALID,0.112112,VALID,22.7004,VALID,170,VALID,0.939453,
2012-09-17, 03:14:05,VALID,1010.56,VALID,0,VALID,104,VALID,0,VALID,22.6809,VALID,166,VALID,0.782812,
2012-09-17, 03:15:05,VALID,1010.52,VALID,0,VALID,104,VALID,0,VALID,22.6792,VALID,127,VALID,0.554688,
2012-09-17, 03:16:05,VALID,1010.51,VALID,0,VALID,104,VALID,0.112112,VALID,22.7199,VALID,127,VALID,0.227344,
2012-09-17, 03:17:05,VALID,1010.47,VALID,0,VALID,104,VALID,0,VALID,22.7394,VALID,184,VALID,0.8125,
2012-09-17, 03:18:05,VALID,1010.48,VALID,0,VALID,104,VALID,0,VALID,22.7394,VALID,189,VALID,0.533203,
2012-09-17, 03:19:05,VALID,1010.45,VALID,0,VALID,104,VALID,0,VALID,22.7571,VALID,189,VALID,0.706641,
2012-09-17, 03:20:05,VALID,1010.42,VALID,0,VALID,104,VALID,0,VALID,22.7571,VALID,189,VALID,0.451953,
2012-09-17, 03:21:05,VALID,1010.39,VALID,0,VALID,104,VALID,0,VALID,22.7766,VALID,189,VALID,0.391406,
2012-09-17, 03:22:05,VALID,1010.38,VALID,0,VALID,104,VALID,0.112112,VALID,22.7766,VALID,189,VALID,0.458594,
2012-09-17, 03:23:05,VALID,1010.37,VALID,0,VALID,104,VALID,0.112112,VALID,22.7766,VALID,189,VALID,0.196094,
2012-09-17, 03:24:05,VALID,1010.37,VALID,0,VALID,104,VALID,0.112112,VALID,22.7783,VALID,189,VALID,0.450391,
2012-09-17, 03:25:05,VALID,1010.36,VALID,0,VALID,104,VALID,0.112112,VALID,22.7783,VALID,163,VALID,0.460938,
2012-09-17, 03:26:05,VALID,1010.38,VALID,0,VALID,104,VALID,0,VALID,22.7978,VALID,91,VALID,0.634375,
2012-09-17, 03:27:05,VALID,1010.38,VALID,0,VALID,104,VALID,0.112112,VALID,22.7978,VALID,63,VALID,0.765234,
2012-09-17, 03:28:05,VALID,1010.37,VALID,0,VALID,104,VALID,0,VALID,22.7978,VALID,53,VALID,0.683984,
2012-09-17, 03:29:05,VALID,1010.37,VALID,0,VALID,104,VALID,0.112112,VALID,22.7978,VALID,53,VALID,0.494531,
2012-09-17, 03:30:05,VALID,1010.31,VALID,0,VALID,104,VALID,0,VALID,22.7571,VALID,53,VALID,0.419531,
2012-09-17, 03:31:05,VALID,1010.28,VALID,0,VALID,104,VALID,0,VALID,22.7571,VALID,53,VALID,0.272266,
2012-09-17, 03:32:05,VALID,1010.26,VALID,0,VALID,104,VALID,0,VALID,22.7783,VALID,53,VALID,0.53125,
2012-09-17, 03:33:05,VALID,1010.24,VALID,0,VALID,104,VALID,0,VALID,22.7588,VALID,16,VALID,0.862109,
2012-09-17, 03:34:05,VALID,1010.21,VALID,0,VALID,104,VALID,0.112112,VALID,22.7199,VALID,4,VALID,0.39375,
2012-09-17, 03:35:05,VALID,1010.2,VALID,0,VALID,104,VALID,0,VALID,22.6792,VALID,2,VALID,0.732031,
2012-09-17, 03:36:05,VALID,1010.19,VALID,0,VALID,104,VALID,0,VALID,22.7004,VALID,2,VALID,0.476563,
2012-09-17, 03:37:05,VALID,1010.18,VALID,0,VALID,104,VALID,0.112112,VALID,22.6809,VALID,2,VALID,0.496094,
2012-09-17, 03:38:05,VALID,1010.16,VALID,0,VALID,104,VALID,0.112112,VALID,22.6597,VALID,2,VALID,0.430859,
2012-09-17, 03:39:05,VALID,1010.18,VALID,0,VALID,104,VALID,0.112112,VALID,22.6402,VALID,2,VALID,0.616016,
2012-09-17, 03:40:05,VALID,1010.18,VALID,0,VALID,104,VALID,0,VALID,22.642,VALID,2,VALID,0.34375,
2012-09-17, 03:41:05,VALID,1010.18,VALID,0,VALID,104,VALID,0.112112,VALID,22.642,VALID,2,VALID,0.166016,
2012-09-17, 03:42:05,VALID,1010.2,VALID,0,VALID,104,VALID,0.112112,VALID,22.6208,VALID,2,VALID,0,
2012-09-17, 03:43:05,VALID,1010.23,VALID,0,VALID,104,VALID,0.112112,VALID,22.6208,VALID,2,VALID,0.263281,
2012-09-17, 03:44:05,VALID,1010.19,VALID,0,VALID,104,VALID,0.112112,VALID,22.6597,VALID,2,VALID,0.4,
2012-09-17, 03:45:05,VALID,1010.2,VALID,0,VALID,104,VALID,0.112112,VALID,22.6792,VALID,2,VALID,0.389062,
2012-09-17, 03:46:05,VALID,1010.18,VALID,0,VALID,104,VALID,0.112112,VALID,22.6987,VALID,2,VALID,0.229297,
2012-09-17, 03:47:05,VALID,1010.22,VALID,0,VALID,104,VALID,0,VALID,22.6987,VALID,2,VALID,0,
2012-09-17, 03:48:05,VALID,1010.24,VALID,0,VALID,104,VALID,0.112112,VALID,22.7182,VALID,2,VALID,0,
2012-09-17, 03:49:05,VALID,1010.24,VALID,0,VALID,104,VALID,0.112112,VALID,22.7182,VALID,2,VALID,0.0589844,